IRNSS-1B

Last updated on Tue Sep 01 2026 00:04:25 GMT+0000 (Coordinated Universal Time)

1 39635U 14017A 26241.09350273 .00000120 00000+0 00000+0 0 9994 2 39635 28.8014 239.1486 0020751 194.1058 352.9027 1.00279231 45526
UTC large
Height (km)
Speed (km/s)
/
Latitude / Longitude
Inclination (degrees)
Orbital Period (minutes)
Azimuth
Elevation
Range (km)
Doppler Factor

Next 0 passes for location: London (51.5072 / 0.1276)

No passes found over London.
IRNSS-1B